Location: Contre
(49.7477°N, 2.0963°E)
Time: 23:02:58
(UTC+00:00)

Envisat - Pass Details

Date: 02 March 2024
Orbit: 762 x 764 km, 98.3° (Epoch: 12 April)

Event Time Altitude Azimuth Distance (km) Brightness Sun altitude
Rises 03:02:42 0° 17° (NNE) 3,242 6.9 -33.3°
Reaches altitude 10° 03:05:04 10° 22° (NNE) 2,311 6.1 -33.0°
Enters shadow 03:08:59 45° 58° (ENE) 1,037 3.9 -32.4°
